Regional Weather Roundup
Issued by NWS

Home | Current Version | Previous Version | Graphics & Text | Print | Product List | Glossary On
Versions: 1 2 3 4 5 6 7 8 9 10 11 12 13 14 15 16 17 18 19 20 21 22 23 24 25 26 27 28 29 30 31 32 33 34 35 36 37 38 39 40 41 42 43 44 45 46 47 48 49 50
000
ASUS45 KBOU 061910
RWRCO

WEATHER ROUNDUP FOR COLORADO
NATIONAL WEATHER SERVICE DENVER/BOULDER CO
100 PM MDT MON JUL 06 2015

NOTE: "FAIR" INDICATES FEW OR NO CLOUDS BELOW 12000 FEET WITH NO
SIGNIFICANT WEATHER AND/OR OBSTRUCTIONS TO VISIBILITY.

COZ001>005-013-030-031-062000-
...NORTHWEST COLORADO...

CITY           SKY/WX    TMP DP  RH WIND       PRES   REMARKS
CRAIG          MOSUNNY   76  53  44 CALM      30.25F
HAYDEN         MOSUNNY   72  48  43 NW7       30.27F
MEEKER         CLOUDY    72  55  55 CALM      30.26F
MOUNT WERNER   NOT AVBL
STEAMBOAT SPGS CLOUDY    64  55  73 NW12      30.30S
WALDEN         CLOUDY    61  50  67 NW7       30.37F
$$

COZ006>008-011-062000-
...WEST CENTRAL VALLEYS...

CITY           SKY/WX    TMP DP  RH WIND       PRES   REMARKS
GRAND JUNCTION MOSUNNY   82  56  40 SE9       30.13F
MONTROSE       CLOUDY    77  55  46 NW9       30.23S
EAGLE          PTSUNNY   73  50  43 SW6       30.28F
RIFLE          PTSUNNY   70  56  61 VRB5      30.22F
DELTA          CLOUDY    76  58  52 CALM      30.19S
NUCLA          CLOUDY    79  45  29 N7        30.26F
$$

COZ017>023-064>068-062000-
...SOUTHWEST COLORADO...

CITY           SKY/WX    TMP DP  RH WIND       PRES   REMARKS
DURANGO        MOSUNNY   77  49  37 VRB5      30.21F
CORTEZ         MOSUNNY   84  55  36 W17       30.18F
PAGOSA SPRINGS MOSUNNY   76  43  31 W5        30.29F
TELLURIDE      CLOUDY    65  47  52 W10G24    30.44S THUNDER
WOLF CREEK PAS NOT AVBL
$$

COZ009-010-012-014-032>034-037-058>063-062000-
...CENTRAL COLORADO...

CITY           SKY/WX    TMP DP  RH WIND       PRES   REMARKS
ASPEN          PTSUNNY   72  48  42 N10G17    30.33F
BUENA VISTA    CLOUDY    72  41  32 CALM      30.30F
COPPER MTN     PTSUNNY   55  43  62 W9G17     30.62F
BERTHOUD PASS  HAZE      43  32  65 N6        30.66F VSB<1/4
COTTONWOOD PAS NOT AVBL
GUNNISON       CLOUDY    70  48  46 SW7       30.34F
KREMMLING      PTSUNNY   72  45  37 S3        30.32F
LEADVILLE      CLOUDY    55  45  68 VRB6      30.47S
MONARCH PASS   CLOUDY    50  41  71 E7        30.72F
SALIDA         PTSUNNY   77  42  28 SW8       30.35F
SUNLIGHT       CLOUDY    55  46  71 N5        30.58F
WILKERSON PASS RAIN      48  46  93 E6        30.60F VSB<1/4
$$

COZ069>075-062000-
...SAN LUIS VALLEY/SANGRE DE CRISTO MOUNTAINS...

CITY           SKY/WX    TMP DP  RH WIND       PRES   REMARKS
ALAMOSA        CLOUDY    73  50  44 VRB5      30.28F
LA VETA PASS   FOG       52  50  93 MISG      30.50F THUNDER VSB<1/4
SAGUACHE       PTSUNNY   73  46  38 CALM      30.31F
$$

COZ035-036-038>040-062000-
...NORTHERN COLORADO FRONT RANGE...

CITY           SKY/WX    TMP DP  RH WIND       PRES   REMARKS
DENVER INTL AP CLOUDY    61  58  90 NE13      30.30S
DMNS CITY PARK   N/A     63  58  85 NE9G18    30.28F
AURORA         LGT RAIN  60  60 100 NE10      30.31S
FRONT RANGE AP CLOUDY    59  57  94 N8        30.31R FOG
ERIE MUNI ARPT LGT RAIN  64  57  80 N6        30.29S
BOULDER MUN AP CLOUDY    63  59  88 N7        30.29F
CENTENNIAL     LGT RAIN  60  58  92 N9        30.31S FOG
BROOMFIELD     CLOUDY    63  59  88 N7        30.31F
FORT COLLINS   CLOUDY    63  59  88 NE6       30.30F
LONGMONT       CLOUDY    65  60  84 N5        30.30F HAZE
$$

COZ041-046-047-076>085-087-088-062000-
...PIKES PEAK/PALMER DIVIDE AND SOUTHERN FOOTHILLS...

CITY           SKY/WX    TMP DP  RH WIND       PRES   REMARKS
COLO. SPRINGS  PTSUNNY   72  55  55 NE17      30.27S
A. F. ACADEMY  MOSUNNY   69  56  63 N18G28    30.28F
ELLICOTT       PTSUNNY  N/A N/A N/A NE17G28   30.27S
FALCON         CLOUDY    64  55  73 N16       30.33S
FORT CARSON    PTSUNNY   71  56  58 NE7       30.24S
LIMON          CLOUDY    61  56  83 N15       30.28R
MONUMENT HILL  LGT RAIN  55  55 100 MISG      30.35S
TRINIDAD       LGT RAIN  66  60  81 E7        30.26S
$$

COZ042>045-048>051-090-091-062000-
...NORTHEAST COLORADO...

CITY           SKY/WX    TMP DP  RH WIND       PRES   REMARKS
GREELEY ARPT   CLOUDY    63  57  82 NE14      30.29S
AKRON          CLOUDY    66  55  67 N14G22    30.25S HAZE
BURLINGTON     CLOUDY    66  58  75 N20       30.20R
WRAY           CLOUDY    72  56  56 N15G21    30.19F
STERLING       CLOUDY    68  54  60 N8          N/A  HAZE
HOLYOKE        PTSUNNY   77  55  47 N18       30.19F HAZE
FORT MORGAN    CLOUDY    65  54  67 N10       30.27F
$$

COZ086-089-092>099-062000-
...SOUTHEAST COLORADO...

CITY           SKY/WX    TMP DP  RH WIND       PRES   REMARKS
PUEBLO         PTSUNNY   82  56  40 NE15G25   30.17S
LA JUNTA       CLOUDY    74  60  61 NE13G18   30.19S
LAMAR          CLOUDY    71  59  65 NE14G23   30.15R
SPRINGFIELD      N/A     70  59  68 N23       30.16R
$$



USA.gov is the U.S. government's official web portal to all federal, state and local government web resources and services.